{"data":{"norad_id":63957,"epoch":"2026-05-25T04:33:21.128832Z","epoch_age_seconds":48875,"freshness":"FRESH","line1":"1 63957U 25099F   26145.18982788  .00013878  00000+0  51273-3 0  9991","line2":"2 63957  43.0006 104.3943 0000826 274.3334  85.7423 15.27588659 59033","mean_motion":15.27588659,"eccentricity":8.26e-5,"inclination_deg":43.0006,"raan_deg":104.3943,"arg_perigee_deg":274.3334,"mean_anomaly_deg":85.7423,"bstar":0.00051273,"rev_number":5903,"period_min":94.266214370998,"perigee_km":482.45643617119,"apogee_km":483.58989983095,"semimajor_km":6861.1601680011,"source":"CELESTRAK","updated_at":"2026-05-25T13:38:20.211715Z"}}